• MPC Preparation (Info)

  • MPEC 2019-G92 : 2019 GJ3

    The following Minor Planet Electronic Circular may be linked-to from your own Web pages, but must not otherwise be redistributed electronically.

    A form allowing access to any MPEC is at the bottom of this page.


    Read MPEC 2019-G91 Read MPEC 2019-G93


    M.P.E.C. 2019-G92                                Issued 2019 Apr. 8, 18:16 UT
    
         The Minor Planet Electronic Circulars contain information on unusual
             minor planets and routine data on comets.  They are published
        on behalf of Division F of the International Astronomical Union by the
              Minor Planet Center, Smithsonian Astrophysical Observatory,
                              Cambridge, MA 02138, U.S.A.
    
                 Prepared using the Tamkin Foundation Computer Network
    
                                  MPC@CFA.HARVARD.EDU
                URL https://www.minorplanetcenter.net/    ISSN 1523-6714
    
                                       2019 GJ3
    
    Observations:
         K19G03J* C2019 04 05.23205 10 49 23.07 +04 14 20.6          18.2 GVEG092G96
         K19G03J  C2019 04 05.24319 10 50 03.65 +04 10 34.6          18.3 GVEG092G96
         K19G03J  C2019 04 05.24877 10 50 23.87 +04 08 42.2          19.4 GVEG092G96
         K19G03J  C2019 04 05.31000 10 54 11.94 +03 47 28.8          19.3 GVEG092I52
         K19G03J  C2019 04 05.31012 10 54 12.32 +03 47 27.2          17.9 GVEG092I52
         K19G03J  C2019 04 05.31025 10 54 12.77 +03 47 24.8          18.1 GVEG092I52
         K19G03J KC2019 04 05.86253911 36 16.57 +00 08 29.1          18.2 GVEG092L01
         K19G03J KC2019 04 05.86353311 36 21.19 +00 08 03.7          18.4 GVEG092L01
         K19G03J KC2019 04 05.86452411 36 25.75 +00 07 38.0          18.3 GVEG092L01
         K19G03J KC2019 04 05.86552311 36 30.37 +00 07 12.3          18.2 GVEG092L01
         K19G03J KC2019 04 05.86601711 36 32.69 +00 06 59.6          18.1 GVEG092L01
         K19G03J KC2019 04 05.86642411 36 34.55 +00 06 49.1          18.3 GVEG092L01
         K19G03J  C2019 04 06.13980 12 00 20.46 -01 52 04.4          17.8 GVEG092I52
         K19G03J  C2019 04 06.13993 12 00 21.11 -01 52 08.1          18.4 GVEG092I52
         K19G03J  C2019 04 06.14006 12 00 21.73 -01 52 11.4          18.1 GVEG092I52
         K19G03J  C2019 04 06.14018 12 00 22.37 -01 52 14.7          17.8 GVEG092I52
         K19G03J  C2019 04 06.34111912 18 07.756-03 22 54.67         17.80GVEG092F51
         K19G03J  C2019 04 06.35294312 19 08.222-03 28 31.69         17.73GVEG092F51
         K19G03J  C2019 04 06.36666312 20 18.326-03 35 02.43         17.87GVEG092F51
         K19G03J  C2019 04 06.37846212 21 18.664-03 40 38.68         17.95GVEG092F51
         K19G03J  C2019 04 06.52737 12 35 27.12 -04 55 00.0          18.3 RmEG092P93
         K19G03J  C2019 04 06.52920 12 35 36.87 -04 55 52.8          18.2 RmEG092P93
         K19G03J  C2019 04 06.53104 12 35 46.60 -04 56 45.6          18.1 RmEG092P93
         K19G03J  C2019 04 06.85654 13 06 40.11 -07 32 06.2                VEG092246
         K19G03J  C2019 04 06.85669 13 06 40.85 -07 32 10.6                VEG092246
         K19G03J  C2019 04 06.85677 13 06 41.34 -07 32 12.1                VEG092246
         K19G03J  C2019 04 06.85686 13 06 41.87 -07 32 15.5                VEG092246
         K19G03J  C2019 04 06.85696 13 06 42.40 -07 32 18.8                VEG092246
         K19G03J  C2019 04 06.85705 13 06 42.92 -07 32 19.5                VEG092246
         K19G03J  C2019 04 06.85714 13 06 43.39 -07 32 23.1                VEG092246
         K19G03J  C2019 04 06.85723 13 06 43.92 -07 32 25.7                VEG092246
         K19G03J KC2019 04 06.91528913 12 14.64 -07 58 01.1          17.9 VqEG092I93
         K19G03J  C2019 04 06.92150 13 12 36.33 -08 02 12.8          20.0 VVEG092033
         K19G03J KC2019 04 06.92207513 12 51.65 -08 01 07.1          17.8 VqEG092I93
         K19G03J  C2019 04 06.92259 13 12 42.21 -08 02 42.1          20.1 VVEG092033
         K19G03J  C2019 04 06.92286 13 12 43.72 -08 02 49.5          20.0 VVEG092033
         K19G03J  C2019 04 06.92313 13 12 45.22 -08 02 57.0          19.9 VVEG092033
         K19G03J  C2019 04 06.92341 13 12 46.70 -08 03 04.3          19.8 VVEG092033
         K19G03J KC2019 04 06.93213413 13 46.40 -08 05 41.2          17.7 VqEG092I93
         K19G03J KC2019 04 07.02833 13 22 17.08 -08 49 26.9          18.6 GVEG092K87
         K19G03J KC2019 04 07.02874 13 22 19.30 -08 49 37.5          18.6 GVEG092K87
         K19G03J KC2019 04 07.02920 13 22 21.76 -08 49 49.7          17.8 GVEG092K87
         K19G03J KC2019 04 07.03626 13 24 08.87 -08 28 56.7          17.9 GVEG092I19
         K19G03J KC2019 04 07.03990 13 24 28.77 -08 30 34.3          18.2 GVEG092I19
         K19G03J KC2019 04 07.04365 13 24 49.30 -08 32 15.1          18.0 GVEG092I19
         K19G03J  C2019 04 07.24026 13 42 59.70 -10 14 52.4          17.7 GVEG092I52
         K19G03J  C2019 04 07.24039 13 43 00.36 -10 14 55.5          17.9 GVEG092I52
         K19G03J  C2019 04 07.24052 13 43 01.01 -10 14 58.7          17.6 GVEG092I52
         K19G03J  C2019 04 07.24065 13 43 01.71 -10 15 02.0          17.8 GVEG092I52
         K19G03J  C2019 04 08.26056 15 07 40.39 -15 28 00.1          18.5 GVEG092I52
         K19G03J  C2019 04 08.26094 15 07 41.91 -15 28 05.3          18.1 GVEG092I52
         K19G03J  C2019 04 08.26133 15 07 43.46 -15 28 10.4          18.9 GVEG092I52
         K19G03J  C2019 04 08.26172 15 07 45.07 -15 28 15.6          18.7 GVEG092I52
    
    Observer details:
    033 Karl Schwarzschild Observatory, Tautenburg.  Observers F. Ludwig,
        B. Stecklum.  Measurer B. Stecklum.  1.34-m f/3 Schmidt + CCD.
    246 Klet Observatory-KLENOT.  Observers M. Tichy, J. Ticha.  1.06-m f/5.2
        reflector + 2048x2048 CCD.
    F51 Pan-STARRS 1, Haleakala.  Observers J. Bulger, K. Chambers, T. Lowe,
        E. Magnier, A. Schultz, M. Willman.  Measurers S. Chastel, M. Huber,
        Y. Ramanjooloo, R. Wainscoat, R. Weryk.  1.8-m Ritchey-Chretien + CCD.
    G96 Mt. Lemmon Survey.  Observer B. M. Africano.  Measurers B. M. Africano,
        E. J. Christensen, G. A. Farneth, D. C. Fuls, A. R. Gibbs, A. D. Grauer,
        H. Groeller, R. A. Kowalski, S. M. Larson, G. J. Leonard, T. A. Pruyne,
        R. L. Seaman, F. C. Shelly.  1.5-m reflector + 10K CCD.
    I19 Observatorio El Gato Gris, Tanti.  Observers C. Colazo, M. Santucho,
        E. Rodriguez.  Measurer E. Rodriguez.  0.36-m f/10.70 Schmidt-Cassegrain
        + CCD.
    I52 Steward Observatory, Mt. Lemmon Station.  Observers G. J. Leonard,
        H. Groeller.  Measurers B. M. Africano, E. J. Christensen, G. A. Farneth,
        D. C. Fuls, A. R. Gibbs, A. D. Grauer, H. Groeller, R. A. Kowalski,
        S. M. Larson, G. J. Leonard, T. A. Pruyne, R. L. Seaman, F. C. Shelly.
        1.0-m reflector + CCD.
    I93 St Pardon de Conques.  Observer F. Losse.  0.40-m f/3.7 reflector + CCD.
    K87 Dettelbach Vineyard Observatory.  Observer B. Haeusler.  0.30-m
        Schmidt-Cassegrain + CCD.
    L01 Visnjan Observatory, Tican.  Observer K. Korlevic.  1.0-m f/2.9 reflector
        + CCD.
    P93 Space Tracking and Communications Center, JAXA.  Observers K. Nishiyama,
        S. Okumura, T. Fujiwara.  1.0-m f/3.0 reflector + CCD.
    
    Orbital elements:
    2019 GJ3                                                 Earth MOID = 0.0081 AU
    Epoch 2019 Apr. 27.0 TT = JDT 2458600.5                 MPC
    M   9.21187              (2000.0)            P               Q
    n   0.40659629     Peri.  357.05431     -0.97205441     +0.23472581
    a   1.8045148      Node   196.52260     -0.21511409     -0.89699771
    e   0.4412486      Incl.    0.75438     -0.09400082     -0.37456495
    P   2.42           H   28.0           G   0.15           U   5
    Residuals in seconds of arc
    190405 G96  0.0   0.0     190406 F51  0.1+  0.0     190406 033  0.2+  0.1-
    190405 G96  0.1+  0.1+    190406 F51  0.1+  0.0     190406 033  0.5-  0.2+
    190405 G96 (2.5-  1.5+)   190406 P93  0.2-  0.2+    190406 I93  0.3+  0.3+
    190405 I52 (1.7+  1.1-)   190406 P93  0.1+  0.0     190407 K87  0.5-  0.6+
    190405 I52  0.6+  0.1-    190406 P93  0.6-  0.1+    190407 K87  0.4-  0.6+
    190405 I52  0.1-  0.2+    190406 246  0.6+  0.0     190407 K87  0.9-  0.4+
    190405 L01  0.3-  0.2-    190406 246  0.7-  0.2-    190407 I19  0.8+  0.4-
    190405 L01  0.0   0.1+    190406 246  0.1+  0.5+    190407 I19  0.2+  0.1+
    190405 L01  0.4-  0.0     190406 246  0.6+  0.4-    190407 I19  0.6+  0.1+
    190405 L01  0.5-  0.2+    190406 246  0.3+  0.9-    190407 I52  0.1-  0.0
    190405 L01  0.1-  0.3+    190406 246  0.7+  0.9+    190407 I52  0.4-  0.1+
    190405 L01  0.4-  0.3+    190406 246  0.3+  0.2-    190407 I52  0.9-  0.1+
    190406 I52  0.3-  0.2-    190406 246  0.8+  0.3-    190407 I52  0.7-  0.1+
    190406 I52  0.3-  0.3-    190406 I93  0.6-  0.1-    190408 I52  0.2+  0.1-
    190406 I52  0.8-  0.0     190406 033  0.2+  0.3-    190408 I52  0.1+  0.2-
    190406 I52  0.3-  0.1+    190406 I93  0.2-  0.3-    190408 I52  0.2-  0.1+
    190406 F51  0.1+  0.1-    190406 033  0.8-  0.1+    190408 I52  0.5+  0.2+
    190406 F51  0.5+  0.2-    190406 033  0.2-  0.0
    
    Ephemeris:
    2019 GJ3                 a,e,i = 1.80, 0.44, 1                   q = 1.0083
    Date    TT    R. A. (2000) Decl.     Delta      r     Elong.  Phase     V
    2019 03 09    07 33 30.2 +17 07 46   0.09549 1.0496   124.4    51.3    24.9
    ...
    2019 03 24    07 45 53.4 +16 34 22   0.04695 1.0156   112.5    65.1    23.7
    ...
    2019 04 01    08 34 13.7 +14 10 32   0.02100 1.0086   116.5    62.4    21.9
    ...
    2019 04 07    13 19 43.5 -08 20 56   0.0078801.0087   175.1     4.9    17.9
    2019 04 08    14 47 37.2 -14 15 55   0.0089051.0091   153.8    26.0    19.0
    2019 04 09    15 52 28.2 -17 15 09   0.01093 1.0096   138.9    40.7    19.8
    ...
    2019 04 15    17 58 40.5 -19 08 24   0.02899 1.0155   114.7    63.8    22.6
    ...
    2019 04 23    18 28 25.3 -18 49 01   0.05519 1.0302   115.5    61.8    24.0
    ...
    2019 05 08    18 34 59.3 -18 45 19   0.1039  1.0768   128.4    47.2    25.0
    
    A. U. Tomatic                (C) Copyright 2019 MPC           M.P.E.C. 2019-G92
    

    Read MPEC 2019-G91 Read MPEC 2019-G93


    MPEC number:

    Enter an MPEC number in one of the following forms:

    • 1997-B01 (the full form)
    • J97B01 (the packed version of the full form)
    • B01 (the abbreviated form)